Weather Roundup
Issued by NWS Chicago, IL

Home | Current Version | Previous Version | Text Only | Print | Product List | Glossary Off
Versions: 1 2 3 4 5 6 7 8 9 10 11 12 13 14 15 16 17 18 19 20 21 22 23 24 25 26 27 28 29 30 31 32 33 34 35 36 37 38 39 40 41 42 43 44 45 46 47 48 49 50

000
NZUS59 KLOT 010000
HRRLOT

CHICAGO AREA WEATHER ROUNDUP
NATIONAL WEATHER SERVICE CHICAGO/ROMEOVILLE IL
700 PM CDT MON AUG 31 2015

NOTE: "FAIR" INDICATES FEW OR NO CLOUDS BELOW 12,000 FEET WITH NO
SIGNIFICANT WEATHER AND/OR OBSTRUCTIONS TO VISIBILITY.

* THESE STATIONS ARE NOT UNDER NWS QUALITY CONTROL. THEY ALSO MAY NOT
  REPORT WEATHER SUCH AS PRECIPITATION OR FOG.

ILZ005-006-012>014-019>023-010100-
NORTHEAST ILLINOIS

CITY           SKY/WX    TMP DP  RH WIND       PRES   REMARKS
OHARE          PTCLDY    82  68  62 CALM      30.01S HX  85
6HR MIN TEMP:  82; 6HR MAX TEMP:  85;

MIDWAY         PTCLDY    83  68  60 E5        30.00F HX  86
6HR MIN TEMP:  83; 6HR MAX TEMP:  87;

AURORA         CLEAR     83  71  67 S3        30.02S HX  87
6HR MIN TEMP:  83; 6HR MAX TEMP:  86;

WAUKEGAN       NOT AVBL
DUPAGE AIRPORT CLEAR     81  69  67 CALM      30.01S HX  84
6HR MIN TEMP:  80; 6HR MAX TEMP:  85;

WHEELING       CLEAR     78  68  71 E3        30.02F HX  80
6HR MIN TEMP:  78; 6HR MAX TEMP:  84;

NORTHERLY IS     N/A     73  68  84 CALM        N/A
$$

WIZ051-052-058>065-066-070>072-010100-
SOUTHEAST WISCONSIN

CITY           SKY/WX    TMP DP  RH WIND       PRES   REMARKS
MILWAUKEE      MOCLDY    72  65  78 SE3       30.01S
6HR MIN TEMP:  72; 6HR MAX TEMP:  80;

KENOSHA*       CLEAR     75  67  76 SE7       30.02S
RACINE*        CLEAR     73  64  73 S7        30.03S
$$

INZ001>003-010>013-019-020-010100-
NORTHWEST INDIANA

CITY           SKY/WX    TMP DP  RH WIND       PRES   REMARKS
GARY*          CLEAR     81  70  69 CALM      30.02S HX  84
MICHIGAN CITY* NOT AVBL
RENSSELAER*    NOT AVBL
$$

LMZ740>746-010100-
SOUTHERN LAKE MICHIGAN

STATION/POSITION TIME  SKY/WX   TEMP WIND        PRES    VSBY
                                AIR  DIR/SP/G
                 (UTC)          (F)  (DEG/KT/KT) (MB)    (MI)
HARRISON CRIB    2300            73  150/  4/  6   N/A
BURNHAM HARBOR   2300            75   CALM  /  2   N/A
CALUMET HARBOR   2300            74   50/  4/  5   N/A
BURNS HARBOR     2300            75   80/  9/ 10 1016.9S
MICHIGAN CITY    2300            74   30/  9/ 10   N/A
$$

ABBREVIATIONS USED IN REMARKS
   TC - TEMPERATURE IN CELSIUS
  WCI - WIND CHILL INDEX
   HX - HEAT INDEX
  VSB - VISIBILITY
$$


USA.gov is the U.S. government's official web portal to all federal, state and local government web resources and services.